STARLINK-35313, 65758

Orbit data source: Space-Track

STARLINK-35313, 65758 is a payload satellite owned by SpaceX/Seattle (US) in LEO that was launched on Thu, 25 Sep 2025 UTC via an FALCON 9 launch vehicle from the Air Force Eastern Test Range (AFETR). Payload-class satellites include a variety of spacecraft equipped with specific instruments for various scientific and technological missions. These include communications satellites like Starlink; space stations such as the ISS; scientific satellites like the Hubble; Earth observation satellites from companies like Planet Labs, Umbra, and HawkEye 360; GPS; miniature CubeSats for education and research; and military/defense satellites.

Loading next visibility...
Identifier
65758, 2025-216AA
Orbit
LEO
Country
Flag of USUS
Related business
Manufacturer
SpaceX/Seattle
Mission
Operational Commercial Communications
Bus & Motor
STARLINK V2MO, Unknown motor
Mass
575 kg wet, ~530 kg dry
Launch date (UTC)
2025-09-25 (9 months ago)
Launch vehicle
FALCON 9
Launch site
Air Force Eastern Test Range (AFETR)
Object type
Payload
Rocket body
Debris
Shape & HBR
Box + 2 Pan, 17.7 m
Radar Cross Section
36.964 m², Large (>1 m²)

Expand to show TLE details & history
Last TLE update: 10 hours ago

TLE from 10 hours ago
0 STARLINK-35313
1 65758U 25216AA  26171.42740389  .00016730  00000-0  57577-3 0  9992
2 65758  53.1563 215.6485 0001088  76.9291 283.1831 15.30196398 42230
Epoch: 2026-06-20T10:15Z
TLE epoch observation values (Epoch: 2026-06-20T10:15:27.696Z)
Latitude
-0.00001°
Longitude
153.14091°
Altitude
475.955 km
Speed
7.629 km/s
True Right ascension
14h 22m 35s
True Declination
0° 00' 00"
Sunlit
Object was in full shadow at epoch
Visualization orbit readout
Latitude
Unknown
Longitude
Unknown
Altitude
Unknown
Speed
Unknown
Apparent Right ascension
Unknown
Apparent Declination
Unknown
Sunlit
N/A
Visualization observer readout
Local Sidereal Time
07:13:03
Azimuth
Unknown
Elevation
Unknown
Doppler factor
Unknown
Orbital elements
Apogee altitude
476.229 km
Perigee altitude
474.737 km
Semi-major axis
6,853.62 km
Eccentricity
0.00011
Inclination
53.1563°
RAAN
215.6485°
Arg. of periapsis
76.9291°
True anomaly
283.17096°
Mean anomaly
283.1831°
Eccentric anomaly
283.17703°
Mean motion
3.82528 °/min
Orbital period
94.11 mins
BSTAR
0.00057577
Loading maneuver chart data...
Computing Atmospheric mass density...
Loading historical data...
Loading historical data...
Loading historical data...
Loading historical data...
Loading historical data...
Loading historical data...
Loading historical data...

Documentation

Showing up to 5 results
|